Location: Farges
(46.5116°N, 4.9014°E)
Time: 10:50:53
(UTC+00:00)

Daily predictions for brighter satellites

Satellite Brightness Start Highest point End
(mag) Time Altitude Azimuth Time Altitude Azimuth Time Altitude Azimuth
USA 267 3.4 16:15:09 10° NE 16:21:42 69° SE 16:28:11 10° SW
H-2A R/B 3.1 16:20:07 10° ESE 16:24:05 23° ENE 16:27:59 10° NNE
SJ 16-02 3.1 16:21:15 10° NW 16:25:19 37° WSW 16:29:20 10° S
Cosmos 1763 Rocket 3.7 16:22:03 10° S 16:26:56 51° ESE 16:31:54 10° NNE
CZ-4B R/B 2.8 16:24:12 10° SSE 16:28:13 63° ENE 16:32:02 10° N
USA 305 4.0 16:24:47 10° WNW 16:28:34 31° N 16:32:22 10° NE
USA 276 2.9 16:25:40 10° WNW 16:28:44 54° SSW 16:31:47 10° SE
Cosmos 1656 3.9 16:25:26 10° NNW 16:31:00 81° WSW 16:36:37 10° SSE
Cosmos 1933 4.1 16:29:33 10° SSE 16:33:11 33° E 16:36:50 10° NNE
Cosmos 841 Rocket 4.5 16:29:16 10° SSE 16:33:32 27° E 16:37:48 10° NE
Cosmos 1464 Rocket 4.2 16:28:44 10° S 16:35:08 84° W 16:41:33 10° N
USA 229 DEB 3.9 16:28:28 10° NW 16:35:48 78° NE 16:43:37 10° SE
USA 229 3.9 16:28:33 10° NW 16:35:54 77° NE 16:43:42 10° SE
Cosmos 1937 Rocket 3.8 16:32:12 10° NNW 16:37:21 47° ENE 16:42:27 10° SE
Cosmos 1500 Rocket 3.5 16:35:51 10° N 16:40:18 68° E 16:44:40 10° SSE
Spot 1 4.4 16:35:39 10° NNE 16:40:23 84° ESE 16:45:21 10° SSW
Cosmos 1666 4.3 16:38:17 10° NNE 16:40:24 14° ENE 16:42:31 10° ESE
Nadezhda 4 Rocket 4.1 16:35:48 10° N 16:42:09 88° E 16:48:30 10° S
SeaSat 1 4.4 16:38:44 10° N 16:42:36 23° NW 16:46:27 10° W
SL-24 R/B - RUBIN 2 4.1 16:38:21 10° NNW 16:42:38 36° NE 16:46:40 10° ESE
ATLAS 2AS CENTAUR R/B 4.4 16:37:13 10° WNW 16:43:15 24° NNW 16:49:05 10° NE
Cosmos 2322 Rocket 3.9 16:41:08 10° N 16:43:40 13° NE 16:45:58 10° ENE
Cosmos 990 Rocket 4.0 16:39:06 10° NNW 16:44:20 87° WSW 16:49:30 10° SSE
FengYun 1-2 T 4.2 16:40:17 10° SSE 16:45:51 77° ENE 16:51:25 10° NNW
Cosmos 1697 Rocket 2.6 16:41:03 10° NNW 16:46:41 71° ENE 16:52:16 10° SE
Cosmos 372 Rocket 4.5 16:43:38 10° N 16:48:31 38° ENE 16:53:23 10° SE
NOAA 6 4.0 16:44:11 10° SSE 16:49:15 66° ENE 16:54:22 10° N
Sich 1 3.4 16:45:56 10° N 16:49:59 40° ENE 16:54:03 10° SE
Cosmos 1980 Rocket 2.5 16:45:30 10° NNW 16:50:55 43° NE 16:56:15 10° SE
Cosmos 2221 3.4 16:47:15 10° SSW 16:51:25 51° WNW 16:55:38 10° N
Cosmos 1805 Rocket 3.6 16:47:46 10° N 16:52:02 53° ENE 16:56:16 10° SSE
Cosmos 2369 3.8 16:47:15 10° NNW 16:52:54 54° ENE 16:58:29 10° SE
USA 234 3.3 16:48:56 10° ESE 16:55:29 82° NE 17:02:03 10° NW
Cosmos 1842 Rocket 4.4 16:51:55 10° SSW 16:56:17 55° WNW 17:00:43 10° N
CZ-4C R/B 3.2 16:50:24 10° NNW 16:57:08 48° NE 17:05:03 10° ESE
Cosmos 1092 Rocket 4.0 16:51:42 10° N 16:58:04 71° E 17:04:23 10° SSE
Cosmos 2084 4.1 16:54:39 10° NW 16:58:54 60° SW 17:03:19 10° SSE
NOSS 3-1 (A) 4.3 16:51:52 10° NW 16:59:25 78° SW 17:08:12 10° SSE
Cosmos 1812 3.8 16:57:05 10° SE 17:00:14 25° E 17:02:42 14° NE
Cosmos 1428 Rocket 4.4 16:54:41 10° N 17:00:48 65° E 17:06:54 10° SSE
USA 306 4.1 16:57:09 10° WNW 17:00:53 29° N 17:03:35 16° NE
SL-16 R/B 3.5 16:57:53 10° N 17:01:56 19° NE 17:04:16 15° ENE
ISS -3.6 16:59:10 10° WNW 17:02:31 55° NNE 17:04:59 17° E
Meteor 1-25 Rocket 4.2 16:58:09 10° N 17:03:46 88° E 17:09:23 10° S
deb Chang Zheng 4 4.3 17:01:02 10° SE 17:04:47 30° ENE 17:08:34 10° N
NOSS 2-2 (D) 4.3 16:59:53 10° NNW 17:04:55 62° NE 17:11:58 10° SE
SMAP 3.1 17:00:36 10° SSE 17:05:15 89° WSW 17:09:57 10° NNW
MOS 1-B Rocket 4.4 16:59:37 10° NNE 17:05:17 44° E 17:11:39 10° S
NOSS 2-2 (E) 4.4 17:00:02 10° NW 17:05:17 74° NE 17:12:42 10° SE
Cosmos 2082 Rocket 2.6 17:00:35 10° S 17:05:56 43° ESE 17:10:43 13° NE
Cosmos 1939 Rocket 3.1 17:02:23 10° S 17:06:31 77° WSW 17:10:36 10° NNW
CORIOLIS 4.1 17:02:48 10° SSE 17:08:12 85° ENE 17:13:41 10° NNW
Cosmos 858 Rocket 4.4 17:04:33 10° NNW 17:09:53 78° ENE 17:15:09 10° SSE
Cosmos 44 Rocket 4.2 17:07:45 10° NNW 17:12:03 28° NE 17:14:23 19° E
CZ-4B DEB 4.2 17:09:04 10° SSE 17:14:35 83° ENE 17:20:06 10° NNW
Cosmos 2278 3.9 17:11:24 10° NNW 17:16:57 48° ENE 17:22:26 10° SE
Cosmos 1602 3.8 17:13:22 10° NNW 17:17:14 79° W 17:21:06 10° S
AQUARIUS 4.3 17:14:42 10° S 17:19:11 76° WSW 17:23:42 10° NNW
Cosmos 1627 Rocket 4.4 17:13:19 10° N 17:19:32 86° E 17:25:40 10° S
USA 307 4.1 17:15:58 10° WNW 17:19:45 29° N 17:21:38 21° NE
Cosmos 540 Rocket 3.4 17:15:46 10° SSW 17:20:52 87° ESE 17:26:01 10° NNE
ARGOS 3.4 17:19:39 10° SE 17:24:47 46° ENE 17:29:56 10° N
Cosmos 1570 Rocket 4.4 17:20:47 10° S 17:25:38 40° ESE 17:28:35 21° NE
Cosmos 2279 Rocket 4.1 17:19:49 10° SSE 17:25:48 53° E 17:31:48 10° NNE
COSMO-SKYMED 1 3.0 17:23:24 18° NE 17:26:19 41° E 17:30:25 10° S
COSMOS 2406 3.3 17:20:50 10° SSW 17:26:36 83° WNW 17:32:10 11° NNE
Cosmos 1833 Rocket 3.1 17:22:22 10° SW 17:27:56 64° WNW 17:33:34 10° NNE
Cosmos 1782 2.8 17:25:14 10° S 17:29:14 87° W 17:33:15 10° N
Cosmos 1814 Rocket 4.2 17:25:24 10° S 17:30:26 50° ESE 17:33:44 21° NE
Meteor 2-21 4.4 17:24:25 10° N 17:30:32 88° W 17:36:35 10° S
ATLAS 5 CENTAUR R/B 2.7 17:24:55 10° NW 17:32:07 35° NNE 17:33:08 30° NE
Cosmos 921 Rocket 4.4 17:30:27 10° SSE 17:32:43 21° ESE 17:32:43 21° ESE
Cosmos 1633 Rocket 3.1 17:30:55 10° N 17:35:13 54° ENE 17:39:31 10° SSE
ATLAS CENTAUR R/B 4.1 17:34:53 10° NNW 17:35:23 10° NNW 17:35:53 10° N
Cosmos 1818 3.9 17:31:00 10° NNW 17:36:15 44° NE 17:38:50 26° E
YAOGAN 1 4.3 17:39:35 18° NNE 17:39:35 18° NNE 17:40:58 10° N
GEOS 3 Rocket 4.1 17:37:58 28° E 17:39:55 39° NE 17:44:43 10° NNW
CZ-2D R/B 3.6 17:36:11 10° S 17:40:00 67° W 17:43:49 10° NNW
Meteor 2-6 Rocket 4.4 17:35:11 10° SSE 17:40:42 49° E 17:45:14 15° NNE
USA 308 3.9 17:38:38 10° NW 17:42:25 30° N 17:43:13 28° NNE
SJ-11-01 4.2 17:38:01 10° SSE 17:42:42 63° ENE 17:47:25 10° N
Cosmos 1634 Rocket 4.2 17:36:26 10° SSW 17:42:45 77° W 17:49:09 10° N
COSMOS 2455 2.8 17:37:51 10° SSW 17:43:54 88° NW 17:48:13 20° NNE
PAYLOAD B 4.5 17:38:50 10° S 17:44:25 73° WSW 17:50:03 10° NNW
CZ-2C R/B 2.5 17:40:35 10° NNE 17:45:47 66° ESE 17:50:55 10° S
Cosmos 1500 3.9 17:43:04 10° NNW 17:46:44 53° W 17:50:21 10° S
CZ-4B R/B 3.1 17:41:31 10° SSE 17:46:56 85° ENE 17:52:19 10° NNW
Cosmos 1151 Rocket 2.9 17:43:55 10° S 17:48:14 79° E 17:51:27 18° NNE
Cosmos 2026 Rocket 4.5 17:42:14 10° NNW 17:48:16 61° W 17:54:13 10° S
SKYMED 3 4.4 17:47:47 23° NNE 17:50:30 73° ESE 17:54:50 10° S
Lacrosse 5 rocket 1.8 17:46:54 10° NW 17:50:36 40° NNE 17:50:36 40° NNE
Okean O Rocket 1.5 17:46:35 10° SSE 17:51:01 74° ENE 17:55:29 10° N
Meteor 2-15 4.4 17:52:09 10° S 17:58:06 57° E 18:03:28 13° NNE
Cosmos 2208 Rocket 4.0 17:54:16 10° S 17:59:35 64° ESE 18:01:39 37° NE
CZ-4 R/B 4.3 17:56:14 10° SSE 18:00:21 87° E 18:04:31 10° NNW
Cosmos 1666 Rocket 3.9 17:56:37 10° NNW 18:01:03 67° W 18:05:24 10° S
Meteor 1-10 Rocket 4.3 17:56:56 10° S 18:02:33 55° E 18:04:52 33° NE
H-2A R/B 2.8 17:58:08 10° S 18:03:11 53° W 18:08:09 10° NNW
Meteor 1-11 Rocket 3.8 17:57:44 10° N 18:03:12 49° ENE 18:05:46 29° SE
Cosmos 1470 Rocket 3.5 17:59:52 10° N 18:04:19 65° E 18:08:45 10° SSE
Cosmos 2150 Rocket 4.0 17:59:25 10° NNW 18:04:29 51° ENE 18:04:48 50° ENE
USA 267 3.8 18:01:04 26° NE 18:04:35 52° NNW 18:10:52 10° W
Cosmos 1328 Rocket 3.4 18:01:19 10° S 18:05:46 86° E 18:07:30 37° NNE
Cosmos 1655 Rocket 3.9 18:00:03 10° N 18:06:26 65° ENE 18:12:45 10° SSE
Landsat 5 3.2 18:08:42 78° ENE 18:08:53 81° ESE 18:12:52 10° SSW
Cosmos 2360 Rocket 3.6 18:04:12 10° N 18:07:10 22° NNE 18:07:10 22° NNE
USA 305 3.9 18:05:18 10° NW 18:08:46 34° N 18:08:46 34° N
SKYMED 2 3.9 18:12:00 25° N 18:14:28 64° WNW 18:18:44 10° SSW
Cosmos 2180 Rocket 4.5 18:08:11 10° S 18:14:32 89° W 18:20:51 10° N
Cosmos 841 Rocket 4.5 18:10:15 10° SW 18:15:10 44° WNW 18:18:54 17° N
Cosmos 1666 3.8 18:12:37 10° NNW 18:16:11 43° W 18:19:42 10° SSW
Feng Yun 1-1 Rocket 4.2 18:10:27 10° SSE 18:16:22 81° ENE 18:22:16 10° NNW
Meteor 2-8 Rocket 4.4 18:11:58 10° S 18:18:08 86° WNW 18:24:20 10° N
ATLAS CENTAUR R/B 3.1 18:12:15 10° WSW 18:19:42 41° NW 18:20:44 36° N
Cosmos 1125 Rocket 3.4 18:17:23 10° NNW 18:22:14 64° NE 18:22:14 64° NE
Cosmos 2322 Rocket 2.7 18:23:33 10° NNW 18:27:49 43° NNE 18:27:49 43° NNE
SL-08 RB Rocket 4.2 18:29:45 10° S 18:34:19 60° W 18:38:55 10° NNW
Cosmos 1980 Rocket 3.8 18:29:45 10° NW 18:34:47 33° WSW 18:39:45 10° SSW
ATLAS 2AS CENTAUR R/B 4.2 18:31:19 10° NW 18:36:59 22° NNE 18:37:27 22° NNE
ISS -1.3 18:36:10 10° WNW 18:37:58 24° WSW 18:37:58 24° WSW
CZ-4C R/B 3.6 18:38:52 10° NW 18:46:03 57° WSW 18:54:19 10° SSE
SL-16 R/B 2.2 18:41:09 10° NNW 18:46:11 70° NNW 18:46:11 70° NNW
Cosmos 2082 Rocket 3.6 18:44:57 10° WSW 18:50:07 35° NW 18:52:35 24° N
Cosmos 44 Rocket 4.1 18:49:05 10° NW 18:53:09 49° W 18:53:09 49° W
Cosmos 2333 Rocket 4.2 18:53:04 10° NNW 18:54:27 16° N 18:54:27 16° N
Lacrosse 5 rocket 4.5 19:25:58 10° WNW 19:26:13 11° WNW 19:26:13 11° WNW
BREEZE-M DEB (TANK) 4.4 19:27:00 10° WSW 19:44:57 71° WSW 19:44:57 71° WSW
